Simultaneous Nadir Overpasses (SNOs) Predictions

Prediction of SNOs near US between AQUA and NPP Satellite Orbit:

Table of predicted SNOs near US for the next 10.0 days since TLE Epoch: 1/31/2014
Index Date (AQUA) Time (AQUA) AQUA Lat,Lon Date (NPP) Time (NPP) NPP Lat,Lon Distance(km) Time Diff (sec)
1 02/01/2014 07:46:09 20.00, -89.56 02/01/2014 07:38:18 19.99, -89.39 17.47 471
2 02/01/2014 09:22:02 30.84,-111.60 02/01/2014 09:16:42 30.88,-111.92 30.89 320
3 02/04/2014 06:30:49 46.42, -65.03 02/04/2014 06:33:37 46.78, -67.00 155.94 168
4 02/04/2014 08:08:43 49.92, -88.35 02/04/2014 08:14:04 50.41, -90.82 183.56 321
5 02/04/2014 09:47:36 49.92,-113.07 02/04/2014 09:55:32 50.53,-116.14 227.97 476
6 02/06/2014 19:06:51 49.94, -92.57 02/06/2014 19:04:24 49.60, -94.49 142.96 147
7 02/06/2014 20:45:38 49.58,-117.14 02/06/2014 20:45:45 49.08,-119.63 189.21 7
8 02/09/2014 06:56:37 20.04, -77.16 02/09/2014 06:48:17 17.98, -77.19 230.01 500
9 02/09/2014 08:33:32 27.15,-100.16 02/09/2014 08:27:10 27.18,-100.25 8.82 382
10 02/09/2014 10:09:54 36.22,-122.44 02/09/2014 10:06:03 36.34,-123.00 52.40 231




NCC Satellite Simultaneous Nadir Overpasses (SNOs) Prediction Service
